| time (UTC) | temp C | wind direction | speed KPH | gust KPH | rain 1hr cm | rain 24hr cm | rain mn cm | humidity % | barometer mb |
| 20260503193017 | 16 | 52 | 3.2 | 11.3 | 0.00 | 0.03 | 0.00 | 68 | 1011.5 |
| 20260503191518 | 17 | 317 | 3.2 | 11.3 | 0.00 | 0.03 | 0.00 | 67 | 1011.5 |
| 20260503190019 | 17 | 250 | 3.2 | 11.3 | 0.00 | 0.03 | 0.00 | 70 | 1011.5 |
| 20260503184516 | 16 | 259 | 1.6 | 9.7 | 0.00 | 0.03 | 0.00 | 71 | 1011.5 |
| 20260503183013 | 15 | 271 | 1.6 | 6.4 | 0.00 | 0.03 | 0.00 | 73 | 1011.6 |
| 20260503181507 | 15 | 248 | 1.6 | 6.4 | 0.00 | 0.03 | 0.00 | 75 | 1011.6 |
| 20260503180006 | 15 | 355 | 3.2 | 9.7 | 0.00 | 0.03 | 0.00 | 73 | 1011.7 |
| 20260503174504 | 15 | 87 | 3.2 | 9.7 | 0.00 | 0.03 | 0.00 | 77 | 1011.6 |
| 20260503173003 | 15 | 342 | 3.2 | 12.9 | 0.00 | 0.03 | 0.00 | 75 | 1011.5 |
| 20260503171600 | -17 | 244 | 1.6 | 8.0 | 0.00 | 0.03 | 0.00 | 1011.4 | |
| 20260503081518 | 12 | 231 | 1.6 | 8.0 | 0.00 | 0.03 | 0.00 | 82 | 1010.1 |
| 20260503071509 | 12 | 251 | 0.0 | 3.2 | 0.00 | 0.03 | 0.00 | 83 | 1010.2 |
| 20260503054505 | 12 | 217 | 0.0 | 6.4 | 0.00 | 0.03 | 0.03 | 82 | 1010.6 |
| 20260503053004 | 12 | 355 | 0.0 | 6.4 | 0.00 | 0.03 | 0.03 | 82 | 1010.8 |
| 20260503051503 | 12 | 295 | 1.6 | 6.4 | 0.03 | 0.03 | 0.03 | 81 | 1010.8 |
| 20260503050010 | 12 | 291 | 1.6 | 14.5 | 0.03 | 0.03 | 0.03 | 81 | 1010.7 |
| 20260503044502 | 12 | 315 | 1.6 | 6.4 | 0.03 | 0.03 | 0.03 | 82 | 1010.6 |
| 20260503043004 | 12 | 184 | 1.6 | 8.0 | 0.03 | 0.03 | 0.03 | 81 | 1010.6 |
| 20260503041504 | 12 | 300 | 1.6 | 6.4 | 0.00 | 0.00 | 0.00 | 81 | 1010.5 |
| 20260503040001 | 12 | 360 | 1.6 | 8.0 | 0.00 | 0.00 | 0.00 | 81 | 1010.4 |
| 20260503034601 | 12 | 322 | 3.2 | 8.0 | 0.00 | 0.00 | 0.00 | 81 | 1010.4 |
| 20260503033104 | 12 | 301 | 3.2 | 8.0 | 0.00 | 0.00 | 0.00 | 82 | 1010.2 |
| 20260503031607 | 12 | 338 | 3.2 | 12.9 | 0.00 | 0.00 | 0.00 | 82 | 1010.1 |
| 20260503030059 | 12 | 285 | 3.2 | 9.7 | 0.00 | 0.00 | 0.00 | 81 | 1009.8 |
| 20260503024559 | 12 | 263 | 1.6 | 12.9 | 0.00 | 0.03 | 0.00 | 80 | 1009.7 |
| 20260503023057 | 12 | 300 | 1.6 | 8.0 | 0.00 | 0.03 | 0.00 | 80 | 1009.8 |
| 20260503021559 | 12 | 309 | 4.8 | 12.9 | 0.00 | 0.03 | 0.00 | 79 | 1009.8 |
| 20260503020056 | 13 | 334 | 6.4 | 14.5 | 0.00 | 0.03 | 0.00 | 78 | 1009.8 |
| 20260503014609 | 13 | 279 | 4.8 | 11.3 | 0.00 | 0.03 | 0.00 | 77 | 1009.8 |
| 20260503013053 | 13 | 297 | 4.8 | 12.9 | 0.00 | 0.03 | 0.00 | 76 | 1009.9 |
| 20260503011557 | 13 | 321 | 3.2 | 9.7 | 0.00 | 0.03 | 0.00 | 76 | 1010.0 |
| 20260503010051 | 13 | 234 | 4.8 | 12.9 | 0.00 | 0.03 | 0.00 | 75 | 1010.0 |
| 20260503004550 | 14 | 329 | 4.8 | 16.1 | 0.00 | 0.03 | 0.00 | 75 | 1010.0 |
| 20260503003049 | 14 | 355 | 3.2 | 12.9 | 0.00 | 0.03 | 0.00 | 73 | 1010.0 |
| 20260503001559 | 15 | 285 | 4.8 | 16.1 | 0.00 | 0.03 | 0.00 | 73 | 1010.2 |
| 20260503000046 | 15 | 296 | 4.8 | 16.1 | 0.00 | 0.03 | 0.00 | 72 | 1010.2 |
| 20260502234547 | 16 | 346 | 3.2 | 11.3 | 0.00 | 0.03 | 0.00 | 70 | 1010.3 |
| 20260502233046 | 16 | 309 | 1.6 | 8.0 | 0.00 | 0.03 | 0.00 | 71 | 1010.4 |
| 20260502231540 | 16 | 330 | 3.2 | 11.3 | 0.00 | 0.03 | 0.00 | 71 | 1010.7 |
| 20260502230039 | 16 | 294 | 4.8 | 12.9 | 0.00 | 0.03 | 0.00 | 72 | 1010.9 |
| 20260502224538 | 15 | 323 | 4.8 | 17.7 | 0.00 | 0.03 | 0.00 | 72 | 1011.0 |
| 20260502223037 | 16 | 275 | 3.2 | 12.9 | 0.00 | 0.03 | 0.00 | 71 | 1011.3 |
| 20260502221541 | 15 | 301 | 4.8 | 14.5 | 0.00 | 0.03 | 0.00 | 72 | 1011.5 |
| 20260502220036 | 16 | 305 | 4.8 | 14.5 | 0.00 | 0.03 | 0.00 | 70 | 1011.6 |
| 20260502214536 | 16 | 342 | 3.2 | 12.9 | 0.00 | 0.03 | 0.00 | 71 | 1011.7 |
| 20260502213036 | 16 | 78 | 3.2 | 20.9 | 0.00 | 0.03 | 0.00 | 72 | 1011.8 |
| 20260502211534 | 16 | 339 | 3.2 | 11.3 | 0.00 | 0.03 | 0.00 | 73 | 1011.9 |
| 20260502210031 | 15 | 178 | 1.6 | 9.7 | 0.00 | 0.03 | 0.00 | 75 | 1012.2 |
| 20260502204529 | 15 | 319 | 3.2 | 9.7 | 0.00 | 0.03 | 0.00 | 76 | 1012.3 |
| 20260502203025 | 14 | 326 | 3.2 | 6.4 | 0.00 | 0.03 | 0.00 | 77 | 1012.5 |
| 20260502201525 | 15 | 323 | 1.6 | 8.0 | 0.00 | 0.03 | 0.00 | 79 | 1012.5 |
| 20260502200023 | 14 | 331 | 0.0 | 8.0 | 0.00 | 0.03 | 0.00 | 80 | 1012.7 |
| 20260502194520 | 13 | 355 | 1.6 | 6.4 | 0.00 | 0.03 | 0.00 | 80 | 1012.7 |